TimeCST,TemperatureF,Dew PointF,Humidity,Sea Level PressureIn,VisibilityMPH,Wind Direction,Wind SpeedMPH,Gust SpeedMPH,PrecipitationIn,Events,Conditions,WindDirDegrees,DateUTC
12:15 AM,25.0,21.2,86,30.15,10.0,North,11.5,16.1,N/A,,Overcast,360,2013-01-01 06:15:00
12:35 AM,23.9,18.0,78,30.16,10.0,North,10.4,-,N/A,,Overcast,10,2013-01-01 06:35:00
12:55 AM,23.5,17.4,77,30.16,10.0,North,9.2,-,N/A,,Overcast,10,2013-01-01 06:55:00
1:15 AM,23.4,17.4,78,30.16,10.0,North,8.1,-,N/A,,Overcast,10,2013-01-01 07:15:00
1:35 AM,23.4,17.8,79,30.16,10.0,North,8.1,-,N/A,,Overcast,360,2013-01-01 07:35:00
1:55 AM,23.0,17.6,80,30.17,10.0,NNE,6.9,-,N/A,,Overcast,20,2013-01-01 07:55:00
2:15 AM,23.0,17.6,80,30.16,10.0,North,9.2,-,N/A,,Overcast,10,2013-01-01 08:15:00
2:35 AM,23.0,18.1,82,30.18,10.0,North,4.6,-,N/A,,Overcast,10,2013-01-01 08:35:00
3:15 AM,22.8,17.8,81,30.18,10.0,North,8.1,-,N/A,,Overcast,360,2013-01-01 09:15:00
3:35 AM,22.6,16.3,77,30.19,10.0,North,8.1,-,N/A,,Overcast,10,2013-01-01 09:35:00
3:55 AM,22.3,16.0,77,30.19,10.0,Calm,Calm,-,N/A,,Overcast,0,2013-01-01 09:55:00
4:15 AM,21.7,15.6,77,30.18,10.0,North,8.1,-,N/A,,Overcast,360,2013-01-01 10:15:00
4:35 AM,21.0,14.9,77,30.17,10.0,North,10.4,-,N/A,,Mostly Cloudy,360,2013-01-01 10:35:00
4:55 AM,19.9,14.0,78,30.17,10.0,North,5.8,9.2,N/A,,Scattered Clouds,360,2013-01-01 10:55:00
5:15 AM,19.2,14.2,81,30.17,10.0,North,8.1,-,N/A,,Clear,10,2013-01-01 11:15:00
5:35 AM,18.7,14.0,82,30.17,10.0,North,4.6,-,N/A,,Clear,360,2013-01-01 11:35:00
6:15 AM,17.6,14.0,86,30.16,10.0,North,8.1,-,N/A,,Clear,360,2013-01-01 12:15:00
6:35 AM,18.0,14.0,84,30.24,10.0,Calm,Calm,-,N/A,,Clear,0,2013-01-01 12:35:00
6:55 AM,17.6,13.5,84,30.25,10.0,Calm,Calm,-,N/A,,Clear,0,2013-01-01 12:55:00
7:15 AM,16.5,12.9,86,30.26,10.0,Calm,Calm,-,N/A,,Clear,0,2013-01-01 13:15:00
7:35 AM,15.3,12.7,90,30.25,10.0,North,3.5,-,N/A,,Clear,350,2013-01-01 13:35:00
8:15 AM,14.9,11.8,88,30.27,10.0,Calm,Calm,-,N/A,,Clear,0,2013-01-01 14:15:00
8:35 AM,15.4,11.5,84,30.28,10.0,North,4.6,-,N/A,,Clear,360,2013-01-01 14:35:00
9:15 AM,17.4,11.3,77,30.28,10.0,North,4.6,-,N/A,,Clear,360,2013-01-01 15:15:00
9:35 AM,18.3,11.3,74,30.26,10.0,North,6.9,-,N/A,,Clear,360,2013-01-01 15:35:00
9:55 AM,18.9,11.3,72,30.27,10.0,North,10.4,-,N/A,,Clear,350,2013-01-01 15:55:00
10:15 AM,19.4,11.7,72,30.28,10.0,North,6.9,-,N/A,,Clear,350,2013-01-01 16:15:00
10:35 AM,19.9,11.8,71,30.30,10.0,North,5.8,-,N/A,,Clear,10,2013-01-01 16:35:00
10:55 AM,20.3,11.7,69,30.29,10.0,North,5.8,-,N/A,,Clear,350,2013-01-01 16:55:00
11:15 AM,20.8,12.0,69,30.28,10.0,North,6.9,-,N/A,,Clear,360,2013-01-01 17:15:00
11:35 AM,21.6,12.2,67,30.27,10.0,North,6.9,-,N/A,,Clear,10,2013-01-01 17:35:00
11:55 AM,21.9,12.0,66,30.26,10.0,North,4.6,-,N/A,,Scattered Clouds,10,2013-01-01 17:55:00
12:15 PM,22.6,12.0,64,30.25,10.0,North,4.6,-,N/A,,Scattered Clouds,10,2013-01-01 18:15:00
12:35 PM,23.7,12.4,62,30.25,10.0,North,5.8,-,N/A,,Mostly Cloudy,10,2013-01-01 18:35:00
12:55 PM,24.4,12.4,60,30.25,10.0,NNW,4.6,-,N/A,,Overcast,330,2013-01-01 18:55:00
1:15 PM,23.0,12.6,64,30.24,10.0,NW,5.8,-,N/A,,Overcast,310,2013-01-01 19:15:00
1:35 PM,22.6,12.4,65,30.24,10.0,NW,5.8,-,N/A,,Overcast,320,2013-01-01 19:35:00
1:55 PM,23.0,12.4,64,30.25,10.0,NW,4.6,-,N/A,,Overcast,310,2013-01-01 19:55:00
2:15 PM,22.6,12.6,65,30.25,10.0,NW,4.6,-,N/A,,Overcast,320,2013-01-01 20:15:00
2:35 PM,22.6,12.4,65,30.25,10.0,WNW,4.6,-,N/A,,Overcast,300,2013-01-01 20:35:00
3:15 PM,22.6,12.0,64,30.26,10.0,NW,6.9,-,N/A,,Overcast,310,2013-01-01 21:15:00
3:35 PM,22.3,12.2,65,30.26,10.0,NW,6.9,-,N/A,,Overcast,320,2013-01-01 21:35:00
3:55 PM,22.1,12.2,66,30.26,10.0,NW,4.6,-,N/A,,Overcast,310,2013-01-01 21:55:00
4:15 PM,21.7,12.4,67,30.25,10.0,NW,4.6,-,N/A,,Overcast,310,2013-01-01 22:15:00
4:35 PM,21.2,12.0,68,30.26,10.0,NW,4.6,-,N/A,,Overcast,320,2013-01-01 22:35:00
4:55 PM,20.7,11.5,68,30.26,10.0,NW,4.6,-,N/A,,Scattered Clouds,310,2013-01-01 22:55:00
5:15 PM,19.6,10.0,66,30.27,10.0,NNW,3.5,-,N/A,,Clear,330,2013-01-01 23:15:00
5:35 PM,18.5,9.1,67,30.26,10.0,NNW,3.5,-,N/A,,Clear,340,2013-01-01 23:35:00
5:55 PM,18.0,9.1,68,30.27,10.0,Calm,Calm,-,N/A,,Clear,0,2013-01-01 23:55:00
6:15 PM,16.9,9.1,72,30.25,10.0,Calm,Calm,-,N/A,,Clear,0,2013-01-02 00:15:00
6:35 PM,17.1,9.3,72,30.26,10.0,Calm,Calm,-,N/A,,Clear,0,2013-01-02 00:35:00
6:55 PM,16.9,9.5,73,30.25,10.0,Calm,Calm,-,N/A,,Clear,0,2013-01-02 00:55:00
7:15 PM,14.9,9.1,78,30.26,10.0,Calm,Calm,-,N/A,,Clear,0,2013-01-02 01:15:00
7:35 PM,14.9,10.0,81,30.27,10.0,Calm,Calm,-,N/A,,Clear,0,2013-01-02 01:35:00
7:55 PM,14.2,9.9,83,30.26,10.0,Calm,Calm,-,N/A,,Clear,0,2013-01-02 01:55:00
8:15 PM,14.5,10.4,84,30.25,10.0,Calm,Calm,-,N/A,,Clear,0,2013-01-02 02:15:00
8:35 PM,14.5,10.2,83,30.27,10.0,Calm,Calm,-,N/A,,Clear,0,2013-01-02 02:35:00
8:55 PM,11.8,8.6,87,30.27,7.0,Calm,Calm,-,N/A,,Clear,0,2013-01-02 02:55:00
9:15 PM,11.3,9.7,93,30.27,7.0,Calm,Calm,-,N/A,,Clear,0,2013-01-02 03:15:00
9:35 PM,11.3,9.9,94,30.28,7.0,Calm,Calm,-,N/A,,Clear,0,2013-01-02 03:35:00
9:55 PM,10.8,9.3,94,30.26,7.0,Calm,Calm,-,N/A,,Clear,0,2013-01-02 03:55:00
10:15 PM,11.8,9.9,92,30.25,10.0,Calm,Calm,-,N/A,,Clear,0,2013-01-02 04:15:00
10:35 PM,10.2,7.5,89,30.26,7.0,Calm,Calm,-,N/A,,Clear,0,2013-01-02 04:35:00
10:55 PM,9.3,7.0,90,30.26,7.0,Calm,Calm,-,N/A,,Clear,0,2013-01-02 04:55:00
11:15 PM,9.3,7.3,92,30.25,10.0,Calm,Calm,-,N/A,,Clear,0,2013-01-02 05:15:00
11:35 PM,9.3,6.8,89,30.26,10.0,South,3.5,-,N/A,,Clear,170,2013-01-02 05:35:00
11:55 PM,8.8,6.1,89,30.26,7.0,Calm,Calm,-,N/A,,Clear,0,2013-01-02 05:55:00